Location: Borovka
(49.7741°N, 14.5280°E)
Time: 17:23:34
(UTC+00:00)

Cosmos 841 Rocket - Pass Details

Date: 17 November 2025
Orbit: 742 x 768 km, 74.0° (Epoch: 12 December)

Event Time Altitude Azimuth Distance (km) Brightness Sun altitude
Rises 18:07:38 0° 332° (NNW) 3,248 7.1 -27.5°
Reaches altitude 10° 18:10:04 10° 328° (NNW) 2,318 6.4 -27.8°
Maximum altitude 18:15:09 51° 254° (WSW) 962 4.2 -28.7°
Enters shadow 18:17:15 32° 197° (SSW) 1,297 4.7 -29.0°
